Theta_e
288 289 288 288 287 287 286 285 285 284 285 284 285 284 284 283 282 282 281 281 278 279
287 286 286 285 285 285 284 284 283 284 283 282 282 282 282 279 278 279 279 278 283 285
286 285 285 285 284 284 283 283 281 280 279 277 277 277 278 276 275 278 277 283 284 284
284 284 285 285 284 283 282 282 280 279 277 277 276 275 275 276 278 279 279 280 283 283
282 281 281 281 281 281 281 279 279 278 277 277 277 277 277 276 277 277 278 278 282 282
281 280 280 280 280 279 280 280 279 279 279 278 279 278 279 279 278 279 281 281 281 281
279 279 278 278 279 280 279 279 279 278 279 280 280 280 281 281 280 280 281 281 281 282
278 279 279 278 278 278 278 278 278 278 278 279 280 281 280 280 280 280 280 280 281 282
276 275 275 277 276 277 277 276 276 276 277 278 280 282 284 282 280 280 280 279 280 281
275 275 275 275 274 274 275 275 275 275 277 277 278 282 283 284 281 280 280 280 281 281
275 275 275 275 274 274 274 274 274 274 275 276 277 281 282 283 282 281 281 281 281 281
275 274 274 274 274 274 274 274 275 277 276 276 277 280 282 282 281 281 281 282 282 281
275 274 273 274 274 275 275 275 276 276 277 277 277 281 282 282 281 280 280 281 281 282
274 273 274 274 274 274 273 274 273 273 274 274 275 276 280 282 281 280 280 280 280 280
Wind_Speed
11 8 8 10 8 8 8 7 7 6 6 6 6 5 5 3 3 5 4 5 3 2
11 10 9 8 7 7 6 5 6 6 6 5 5 5 5 3 4 4 4 4 3 2
9 8 8 8 8 8 6 6 6 6 6 5 5 5 5 3 3 5 3 3 4 3
8 7 7 8 7 7 6 7 7 7 6 6 6 5 4 4 5 5 4 3 4 5
9 7 6 6 7 7 8 5 7 6 6 5 5 5 6 6 5 5 5 4 6 7
8 7 7 6 5 6 7 6 5 6 6 6 6 6 6 6 6 6 6 6 6 6
7 6 5 5 5 5 5 6 5 5 6 6 6 6 6 6 6 6 5 6 7 6
7 6 5 4 4 4 5 5 5 5 4 5 5 5 6 6 6 6 6 6 7 7
6 6 5 4 4 4 4 4 4 4 6 6 4 11 14 9 6 7 7 6 7 7
6 5 4 4 3 3 3 3 4 5 5 7 5 13 15 14 6 7 7 7 7 6
6 5 5 4 4 3 4 5 5 5 6 5 5 13 13 13 6 5 7 8 7 7
4 5 5 5 4 3 3 4 5 4 6 7 7 12 14 13 7 7 7 6 7 7
4 3 3 3 4 3 3 4 3 4 4 5 4 9 12 10 4 7 5 7 8 13
3 3 3 3 3 3 3 2 2 2 3 2 4 5 10 12 5 4 3 5 4 5
Wind_Direction
160 167 166 166 164 175 181 177 163 169 171 172 170 171 172 173 170 158 165 169 170 178
154 154 161 153 153 159 147 151 160 167 164 164 167 168 166 167 168 152 168 173 158 170
150 145 140 145 154 151 135 140 151 155 153 153 146 149 158 156 169 157 171 151 165 186
128 125 134 143 142 145 128 141 147 155 153 160 160 164 155 170 169 173 174 151 183 203
116 117 126 139 142 141 142 142 154 151 160 169 177 177 181 187 187 191 188 182 204 213
116 125 129 131 131 132 137 149 154 157 175 182 187 184 190 187 192 197 198 194 207 214
112 112 115 125 136 141 143 155 171 170 180 178 181 188 193 195 200 204 202 202 208 210
118 112 123 136 142 144 161 172 170 172 179 186 189 196 198 200 200 207 212 207 208 216
116 128 142 150 156 161 170 164 159 190 201 194 193 215 223 204 209 207 211 214 214 217
130 137 139 136 140 151 165 150 189 201 204 206 202 229 234 238 205 209 211 214 212 210
137 130 136 152 175 175 176 196 200 205 211 219 224 234 238 239 236 221 218 216 210 206
130 139 155 165 166 170 187 201 205 206 199 207 223 233 232 233 233 236 231 215 210 207
118 130 164 155 171 178 205 204 200 227 213 209 216 241 240 234 211 226 216 216 214 210
154 151 179 152 172 175 192 194 188 226 259 242 233 244 250 252 231 224 217 211 206 207